Zurück zum Katalog

DELTA 1 DEB

AktivPO
NORAD 21289·DEBRIS·🇺🇸 United States

Gestartet Jun 12, 1975 von Vandenberg Space Force Base

Loading…

Nächste Überflüge (nächste 24 Stunden)

TLE

AktuellSource: Space-Track

Epoche: Sep 14, 2026, 10:18 UTC

1 21289U 75052AA  26257.42971762  .00000486  00000-0  15119-2 0  9998
2 21289  99.9014 235.6376 0245686 167.6044 347.2258 13.00077561676142

Verfolge DELTA 1 DEB in Echtzeit mit AllMySat

Download on the App Store